Weather in Guri

South Korea     37°35′52″N   127°08′36″E
temp.,
°C
wind,
m/s
gust,
m/s
humid.,
%
clouds,
%
prec.,
mm/h
press.,
hPa
HPBL,
m
23 april, fri
fri2300:00+18sse1236100 0.0 101992
03:00+17ese1138100 0.0 101819
06:00+16nnw1242100 0.0 1020171
09:00+17e4841100 0.0 10211555
12:00+20e6826100 0.0 10201731
15:00+20e6729100 0.0 10181527
18:00+18ene3644100 0.0 1019727
21:00+14ene3763100 0.0 1021295
24 april, sat
sat2400:00+13ene1259100 0.0 1022189
03:00+11ne226498 0.0 102179
06:00+10ne226999 0.0 102164
09:00+16ne1247100 0.0 1022442
12:00+21ene1130100 0.0 10211041
15:00+22wnw2325100 0.0 10192154
18:00+20nnw354199 0.0 1019945
21:00+16nnw23533 0.0 1019187
25 april, sun
sun2500:00+15nnw11600 0.0 101926
03:00+13ne11671 0.0 101916
06:00+12ene23745 0.0 101972
09:00+15ene45555 0.0 1021788
12:00+20e334232 0.0 10201645
15:00+20ene1140100 0.0 10181797
18:00+19ese114789 0.0 1019327
21:00+16e115514 0.0 102017
26 april, mon
mon2600:00+14se226416 0.0 102192
03:00+13ese2360100 0.0 1021182
06:00+11ese2255100 0.0 1022143
09:00+15sse2343100 0.0 1022730
12:00+20s233927 0.0 10211632
15:00+19wnw444397 0.0 10191473
18:00+18wnw4547100 0.0 1020848
21:00+14w2267100 0.0 1021230
27 april, tue
tue2700:00+13w2369100 0.0 1021277
03:00+13wsw0167100 0.0 1020184
06:00+12w0165100 0.0 1020238
09:00+16s1346100 0.0 1019821
12:00+20sw463376 0.0 10172028
15:00+17w5738100 0.0 1017828
18:00+15wsw3653100 0.0 1016561
21:00+14wsw256194 0.0 1017411